Time,TemperatureF,DewpointF,PressureIn,WindDirection,WindDirectionDegrees,WindSpeedMPH,WindSpeedGustMPH,Humidity,HourlyPrecipIn,Conditions,Clouds,dailyrainin,SoftwareType,DateUTC
2013-07-01 11:16:00,72.3,63.6,27.79,NW,315,1.3,1.6,73,0.00,,,0.04,WSDL version 423,2013-07-01 15:16:00,
2013-07-01 11:21:00,72.4,63.2,27.79,North,0,0.0,1.6,74,0.00,,,0.04,WSDL version 423,2013-07-01 15:21:00,
2013-07-01 11:26:00,72.8,64.1,27.79,North,0,0.0,1.6,74,0.00,,,0.04,WSDL version 423,2013-07-01 15:26:00,
2013-07-01 11:34:00,74.0,64.0,27.79,NE,45,0.4,1.6,72,0.00,,,0.04,WSDL version 423,2013-07-01 15:34:00,
2013-07-01 11:40:00,75.4,64.9,27.79,North,349,0.0,1.6,70,0.00,,,0.04,WSDL version 423,2013-07-01 15:40:00,
2013-07-01 11:45:00,76.3,63.9,27.79,NW,304,1.3,2.0,63,0.00,,,0.04,WSDL version 423,2013-07-01 15:45:00,
2013-07-01 11:50:00,76.9,63.0,27.79,South,180,1.3,3.4,62,0.00,,,0.04,WSDL version 423,2013-07-01 15:50:00,
2013-07-01 11:57:00,77.9,63.2,27.76,SE,135,0.9,3.4,60,0.00,,,0.04,WSDL version 423,2013-07-01 15:57:00,
2013-07-01 12:02:00,79.0,63.9,27.76,SE,135,1.1,1.3,60,0.00,,,0.04,WSDL version 423,2013-07-01 16:02:00,
2013-07-01 12:13:00,78.7,62.7,27.76,NW,315,1.1,2.0,59,0.00,,,0.04,WSDL version 423,2013-07-01 16:13:00,
2013-07-01 12:19:00,78.5,61.3,27.76,NNW,338,1.1,2.5,54,0.00,,,0.04,WSDL version 423,2013-07-01 16:19:00,
2013-07-01 12:24:00,80.0,61.4,27.76,WNW,293,1.9,3.6,52,0.00,,,0.04,WSDL version 423,2013-07-01 16:24:00,
2013-07-01 12:29:00,80.0,60.7,27.76,ENE,68,0.9,3.6,53,0.00,,,0.04,WSDL version 423,2013-07-01 16:29:00,
2013-07-01 12:34:00,78.6,60.4,27.76,NW,321,1.2,2.9,51,0.00,,,0.04,WSDL version 423,2013-07-01 16:34:00,
2013-07-01 12:39:00,78.0,59.0,27.76,West,270,1.3,3.8,52,0.00,,,0.04,WSDL version 423,2013-07-01 16:39:00,
2013-07-01 12:44:00,76.8,58.2,27.76,North,0,0.0,3.8,53,0.00,,,0.04,WSDL version 423,2013-07-01 16:44:00,
2013-07-01 12:49:00,75.7,58.8,27.76,ENE,68,0.0,2.7,57,0.00,,,0.04,WSDL version 423,2013-07-01 16:49:00,
2013-07-01 12:54:00,75.4,59.0,27.76,NNW,343,1.0,2.7,56,0.00,,,0.04,WSDL version 423,2013-07-01 16:54:00,
2013-07-01 12:59:00,76.2,60.8,27.76,NNW,338,0.0,2.2,60,0.00,,,0.04,WSDL version 423,2013-07-01 16:59:00,
2013-07-01 13:10:00,75.7,59.4,27.76,ENE,68,0.0,1.1,57,0.00,,,0.04,WSDL version 423,2013-07-01 17:10:00,
2013-07-01 13:23:00,74.3,59.8,27.76,WNW,293,0.9,0.0,61,0.00,,,0.04,WSDL version 423,2013-07-01 17:23:00,
2013-07-01 13:29:00,74.3,60.9,27.76,ENE,68,0.0,1.3,64,0.00,,,0.04,WSDL version 423,2013-07-01 17:29:00,
2013-07-01 13:34:00,74.9,61.9,27.76,North,11,0.7,2.0,64,0.00,,,0.04,WSDL version 423,2013-07-01 17:34:00,
2013-07-01 13:39:00,75.7,62.2,27.76,SE,135,1.6,2.7,60,0.00,,,0.04,WSDL version 423,2013-07-01 17:39:00,
2013-07-01 13:44:00,75.4,60.9,27.76,West,270,0.0,2.7,60,0.00,,,0.04,WSDL version 423,2013-07-01 17:44:00,
2013-07-01 13:52:00,74.5,60.9,27.76,NNW,338,1.3,1.3,64,0.00,,,0.04,WSDL version 423,2013-07-01 17:52:00,
2013-07-01 14:03:00,73.3,61.6,27.76,East,90,1.6,1.6,67,0.00,,,0.04,WSDL version 423,2013-07-01 18:03:00,
2013-07-01 14:19:00,72.4,61.7,27.76,SSE,158,0.9,0.0,69,0.00,,,0.04,WSDL version 423,2013-07-01 18:19:00,
2013-07-01 14:42:00,70.9,61.1,27.76,ESE,113,1.3,1.3,71,0.00,,,0.04,WSDL version 423,2013-07-01 18:42:00,
2013-07-01 14:47:00,70.6,61.1,27.76,ESE,113,0.7,1.3,72,0.00,,,0.04,WSDL version 423,2013-07-01 18:47:00,
2013-07-01 14:52:00,70.3,61.2,27.76,South,180,1.3,2.0,73,0.00,,,0.04,WSDL version 423,2013-07-01 18:52:00,
2013-07-01 14:57:00,69.8,61.5,27.76,WSW,243,5.2,7.4,76,0.00,,,0.04,WSDL version 423,2013-07-01 18:57:00,
2013-07-01 15:02:00,68.6,60.6,27.76,North,11,2.9,7.4,76,0.17,,,0.21,WSDL version 423,2013-07-01 19:02:00,
2013-07-01 15:07:00,67.5,59.9,27.79,SE,139,1.3,4.0,77,0.25,,,0.29,WSDL version 423,2013-07-01 19:07:00,
2013-07-01 15:12:00,66.9,59.4,27.79,SE,129,0.6,2.5,77,0.25,,,0.29,WSDL version 423,2013-07-01 19:12:00,
2013-07-01 15:17:00,66.5,59.5,27.79,ESE,113,0.0,1.3,79,0.25,,,0.29,WSDL version 423,2013-07-01 19:17:00,
2013-07-01 15:22:00,66.3,59.9,27.79,ESE,113,0.0,0.0,80,0.25,,,0.29,WSDL version 423,2013-07-01 19:22:00,
2013-07-01 15:27:00,66.2,60.3,27.79,ENE,64,0.0,0.0,81,0.25,,,0.29,WSDL version 423,2013-07-01 19:27:00,
2013-07-01 15:32:00,66.2,60.4,27.79,NNE,13,0.0,1.3,82,0.29,,,0.33,WSDL version 423,2013-07-01 19:32:00,
2013-07-01 15:37:00,66.1,60.7,27.79,NNW,338,0.0,1.3,83,0.29,,,0.33,WSDL version 423,2013-07-01 19:37:00,
2013-07-01 15:42:00,66.0,61.6,27.79,NW,323,0.0,0.0,87,0.29,,,0.33,WSDL version 423,2013-07-01 19:42:00,
2013-07-01 15:47:00,65.9,61.9,27.79,NW,323,0.0,0.0,87,0.29,,,0.33,WSDL version 423,2013-07-01 19:47:00,
2013-07-01 15:57:00,66.0,62.6,27.79,NNW,329,0.0,2.0,89,0.29,,,0.33,WSDL version 423,2013-07-01 19:57:00,
2013-07-01 16:02:00,66.0,62.8,27.79,WNW,297,0.0,2.0,90,0.12,,,0.33,WSDL version 423,2013-07-01 20:02:00,
2013-07-01 16:07:00,66.1,63.1,27.79,NNW,330,1.3,2.5,90,0.04,,,0.33,WSDL version 423,2013-07-01 20:07:00,
2013-07-01 16:12:00,66.2,63.2,27.79,North,349,0.0,2.5,90,0.04,,,0.33,WSDL version 423,2013-07-01 20:12:00,
2013-07-01 16:17:00,66.4,63.4,27.79,North,351,2.2,2.5,90,0.04,,,0.33,WSDL version 423,2013-07-01 20:17:00,
2013-07-01 16:22:00,66.7,63.6,27.76,SE,135,1.0,2.9,90,0.04,,,0.33,WSDL version 423,2013-07-01 20:22:00,
2013-07-01 16:27:00,66.8,63.8,27.76,NNW,330,0.0,2.9,91,0.04,,,0.33,WSDL version 423,2013-07-01 20:27:00,
2013-07-01 16:32:00,67.0,64.2,27.76,North,354,0.0,2.0,91,0.00,,,0.33,WSDL version 423,2013-07-01 20:32:00,
2013-07-01 16:37:00,67.2,64.5,27.76,SW,225,0.0,2.0,91,0.00,,,0.33,WSDL version 423,2013-07-01 20:37:00,
2013-07-01 16:42:00,67.3,64.7,27.76,WSW,248,0.0,1.3,92,0.00,,,0.33,WSDL version 423,2013-07-01 20:42:00,
2013-07-01 16:47:00,67.5,65.1,27.76,WSW,256,0.0,1.3,92,0.00,,,0.33,WSDL version 423,2013-07-01 20:47:00,
2013-07-01 16:52:00,67.5,65.1,27.79,SW,225,0.0,0.0,92,0.00,,,0.33,WSDL version 423,2013-07-01 20:52:00,
2013-07-01 16:57:00,67.3,64.6,27.79,NW,323,0.0,0.0,91,0.00,,,0.33,WSDL version 423,2013-07-01 20:57:00,
2013-07-01 17:02:00,67.3,64.3,27.79,ENE,68,0.0,0.9,90,0.00,,,0.33,WSDL version 423,2013-07-01 21:02:00,
2013-07-01 17:07:00,67.3,64.2,27.76,ENE,68,0.7,1.1,90,0.00,,,0.33,WSDL version 423,2013-07-01 21:07:00,
2013-07-01 17:12:00,67.3,64.4,27.76,ENE,68,0.0,1.1,91,0.00,,,0.33,WSDL version 423,2013-07-01 21:12:00,
2013-07-01 17:17:00,67.3,64.5,27.76,WSW,257,1.1,2.5,90,0.00,,,0.33,WSDL version 423,2013-07-01 21:17:00,
2013-07-01 17:22:00,67.3,64.2,27.79,East,90,0.0,2.5,90,0.00,,,0.33,WSDL version 423,2013-07-01 21:22:00,
2013-07-01 17:27:00,67.3,64.2,27.79,ENE,68,0.0,0.9,90,0.00,,,0.33,WSDL version 423,2013-07-01 21:27:00,
2013-07-01 17:32:00,67.3,64.2,27.79,SE,135,1.5,2.2,90,0.00,,,0.33,WSDL version 423,2013-07-01 21:32:00,
2013-07-01 17:37:00,67.0,63.9,27.79,SE,135,0.3,2.2,89,0.00,,,0.33,WSDL version 423,2013-07-01 21:37:00,
2013-07-01 17:42:00,66.9,63.5,27.79,South,180,0.0,1.3,89,0.00,,,0.33,WSDL version 423,2013-07-01 21:42:00,
2013-07-01 17:47:00,66.7,63.4,27.79,East,90,0.7,2.0,89,0.00,,,0.33,WSDL version 423,2013-07-01 21:47:00,
2013-07-01 17:52:00,66.8,63.7,27.76,ESE,113,0.3,2.0,90,0.00,,,0.33,WSDL version 423,2013-07-01 21:52:00,
2013-07-01 17:57:00,66.8,63.8,27.76,NE,35,0.0,1.3,90,0.00,,,0.33,WSDL version 423,2013-07-01 21:57:00,
2013-07-01 18:02:00,66.9,63.9,27.76,ESE,113,0.0,0.0,90,0.00,,,0.33,WSDL version 423,2013-07-01 22:02:00,
2013-07-01 18:07:00,67.0,64.2,27.76,SE,140,0.2,2.0,91,0.00,,,0.33,WSDL version 423,2013-07-01 22:07:00,
2013-07-01 18:12:00,67.3,64.6,27.76,SSE,158,0.1,2.0,91,0.00,,,0.33,WSDL version 423,2013-07-01 22:12:00,
2013-07-01 18:17:00,67.5,64.8,27.76,East,90,0.4,2.0,91,0.00,,,0.33,WSDL version 423,2013-07-01 22:17:00,
2013-07-01 18:22:00,67.6,65.0,27.76,East,90,0.2,1.6,91,0.00,,,0.33,WSDL version 423,2013-07-01 22:22:00,
2013-07-01 18:27:00,67.7,65.1,27.76,East,90,0.9,1.3,92,0.00,,,0.33,WSDL version 423,2013-07-01 22:27:00,
2013-07-01 18:32:00,68.0,65.3,27.76,East,90,0.0,1.3,91,0.00,,,0.33,WSDL version 423,2013-07-01 22:32:00,
2013-07-01 18:37:00,68.1,65.4,27.76,SE,143,0.0,1.6,91,0.00,,,0.33,WSDL version 423,2013-07-01 22:37:00,
2013-07-01 18:42:00,68.3,65.6,27.76,ESE,113,0.0,1.6,91,0.00,,,0.33,WSDL version 423,2013-07-01 22:42:00,
2013-07-01 18:47:00,68.4,65.7,27.76,ESE,113,0.0,0.0,91,0.00,,,0.33,WSDL version 423,2013-07-01 22:47:00,
2013-07-01 18:52:00,68.4,65.7,27.76,ESE,113,0.0,0.0,91,0.00,,,0.33,WSDL version 423,2013-07-01 22:52:00,
2013-07-01 19:02:00,68.4,65.7,27.76,East,90,0.7,1.6,91,0.00,,,0.33,WSDL version 423,2013-07-01 23:02:00,
2013-07-01 19:07:00,68.3,65.6,27.79,East,90,0.9,1.6,91,0.00,,,0.33,WSDL version 423,2013-07-01 23:07:00,
2013-07-01 19:12:00,68.2,65.5,27.79,East,90,0.0,2.0,91,0.00,,,0.33,WSDL version 423,2013-07-01 23:12:00,
2013-07-01 19:17:00,68.1,65.3,27.79,NNW,345,0.8,2.0,90,0.00,,,0.33,WSDL version 423,2013-07-01 23:17:00,
2013-07-01 19:22:00,68.0,65.3,27.79,NE,45,0.0,1.6,91,0.00,,,0.33,WSDL version 423,2013-07-01 23:22:00,
2013-07-01 19:27:00,68.0,65.3,27.79,ENE,68,0.0,2.0,91,0.00,,,0.33,WSDL version 423,2013-07-01 23:27:00,
2013-07-01 19:32:00,67.9,65.2,27.79,NNW,338,0.0,2.0,91,0.00,,,0.33,WSDL version 423,2013-07-01 23:32:00,
2013-07-01 19:37:00,67.9,65.3,27.82,WNW,293,0.0,1.3,91,0.00,,,0.33,WSDL version 423,2013-07-01 23:37:00,
2013-07-01 19:42:00,68.0,65.3,27.82,East,79,0.0,1.3,91,0.00,,,0.33,WSDL version 423,2013-07-01 23:42:00,
2013-07-01 19:47:00,67.9,65.2,27.82,East,90,0.0,1.3,91,0.00,,,0.33,WSDL version 423,2013-07-01 23:47:00,
2013-07-01 19:52:00,67.8,65.1,27.79,SE,140,0.0,0.0,91,0.00,,,0.33,WSDL version 423,2013-07-01 23:52:00,
2013-07-01 19:57:00,67.8,65.1,27.79,SE,128,0.0,0.0,91,0.00,,,0.33,WSDL version 423,2013-07-01 23:57:00,
2013-07-01 20:02:00,67.8,65.1,27.79,ESE,113,0.0,0.0,91,0.00,,,0.33,WSDL version 423,2013-07-02 00:02:00,
2013-07-01 20:07:00,67.6,65.0,27.82,ESE,116,0.0,0.0,91,0.00,,,0.33,WSDL version 423,2013-07-02 00:07:00,
2013-07-01 20:12:00,67.6,64.9,27.82,ESE,113,0.0,0.0,91,0.00,,,0.33,WSDL version 423,2013-07-02 00:12:00,
2013-07-01 20:17:00,67.5,64.8,27.82,SE,124,0.0,0.0,91,0.00,,,0.33,WSDL version 423,2013-07-02 00:17:00,
2013-07-01 20:22:00,67.3,64.6,27.79,ESE,113,0.0,0.0,91,0.00,,,0.33,WSDL version 423,2013-07-02 00:22:00,
2013-07-01 20:27:00,67.1,64.5,27.79,ESE,113,0.0,0.0,91,0.00,,,0.33,WSDL version 423,2013-07-02 00:27:00,
2013-07-01 20:32:00,67.0,64.3,27.79,East,90,0.0,1.6,91,0.00,,,0.33,WSDL version 423,2013-07-02 00:32:00,
2013-07-01 20:37:00,66.9,64.2,27.79,ESE,113,0.0,1.6,91,0.00,,,0.33,WSDL version 423,2013-07-02 00:37:00,
2013-07-01 20:42:00,66.7,64.1,27.79,SSE,158,0.0,0.0,91,0.00,,,0.33,WSDL version 423,2013-07-02 00:42:00,
2013-07-01 20:47:00,66.7,64.0,27.79,SSE,158,0.0,0.0,91,0.00,,,0.33,WSDL version 423,2013-07-02 00:47:00,
2013-07-01 20:52:00,66.5,63.9,27.79,SSE,158,0.0,0.0,91,0.00,,,0.33,WSDL version 423,2013-07-02 00:52:00,
2013-07-01 20:57:00,66.4,63.7,27.79,SSE,158,0.0,0.0,91,0.00,,,0.33,WSDL version 423,2013-07-02 00:57:00,
2013-07-01 21:02:00,66.2,63.4,27.79,East,90,0.0,0.0,90,0.00,,,0.33,WSDL version 423,2013-07-02 01:02:00,
2013-07-01 21:07:00,66.0,63.4,27.79,SSE,158,0.0,0.0,91,0.00,,,0.33,WSDL version 423,2013-07-02 01:07:00,
2013-07-01 21:12:00,65.8,63.2,27.79,SSE,158,0.6,1.3,91,0.00,,,0.33,WSDL version 423,2013-07-02 01:12:00,
2013-07-01 21:17:00,65.8,63.2,27.79,SSE,158,0.0,1.3,91,0.00,,,0.33,WSDL version 423,2013-07-02 01:17:00,
2013-07-01 21:22:00,65.8,63.1,27.82,SSE,158,0.0,0.0,91,0.00,,,0.33,WSDL version 423,2013-07-02 01:22:00,
2013-07-01 21:27:00,65.7,63.0,27.82,SSE,158,0.0,0.0,91,0.00,,,0.33,WSDL version 423,2013-07-02 01:27:00,
2013-07-01 21:32:00,65.7,63.0,27.82,SSE,158,0.0,0.0,91,0.00,,,0.33,WSDL version 423,2013-07-02 01:32:00,
2013-07-01 21:37:00,65.6,63.3,27.79,SSE,158,0.0,0.0,92,0.00,,,0.33,WSDL version 423,2013-07-02 01:37:00,
2013-07-01 21:42:00,65.4,63.1,27.79,SSE,158,0.0,0.0,92,0.00,,,0.33,WSDL version 423,2013-07-02 01:42:00,
2013-07-01 21:47:00,65.2,62.9,27.79,SSE,158,0.0,0.0,92,0.00,,,0.33,WSDL version 423,2013-07-02 01:47:00,
2013-07-01 21:52:00,65.1,62.8,27.82,SSE,158,0.0,0.0,92,0.00,,,0.33,WSDL version 423,2013-07-02 01:52:00,
2013-07-01 21:57:00,65.0,62.7,27.82,SSE,158,0.0,0.0,92,0.00,,,0.33,WSDL version 423,2013-07-02 01:57:00,
2013-07-01 22:02:00,64.9,62.6,27.82,SSE,158,0.0,0.0,92,0.00,,,0.33,WSDL version 423,2013-07-02 02:02:00,
2013-07-01 22:07:00,64.9,62.8,27.82,SSE,158,0.0,0.0,93,0.00,,,0.33,WSDL version 423,2013-07-02 02:07:00,
2013-07-01 22:12:00,64.8,62.8,27.82,ESE,113,0.0,1.1,93,0.00,,,0.33,WSDL version 423,2013-07-02 02:12:00,
2013-07-01 22:17:00,64.9,62.9,27.82,SE,131,0.7,1.3,93,0.00,,,0.33,WSDL version 423,2013-07-02 02:17:00,
2013-07-01 22:22:00,65.0,63.1,27.82,ESE,113,0.0,1.3,93,0.00,,,0.33,WSDL version 423,2013-07-02 02:22:00,
2013-07-01 22:27:00,65.1,63.3,27.82,ESE,113,0.0,1.3,94,0.00,,,0.33,WSDL version 423,2013-07-02 02:27:00,
2013-07-01 22:32:00,65.3,63.5,27.82,ESE,120,0.0,0.0,94,0.00,,,0.33,WSDL version 423,2013-07-02 02:32:00,
2013-07-01 22:37:00,65.4,63.8,27.82,East,94,0.0,2.0,94,0.00,,,0.33,WSDL version 423,2013-07-02 02:37:00,
2013-07-01 22:42:00,65.5,63.8,27.82,East,83,1.0,2.0,94,0.00,,,0.33,WSDL version 423,2013-07-02 02:42:00,
2013-07-01 22:47:00,65.4,63.8,27.82,ESE,113,0.0,2.0,94,0.00,,,0.33,WSDL version 423,2013-07-02 02:47:00,
2013-07-01 22:52:00,65.3,63.7,27.82,SE,143,0.6,1.3,94,0.00,,,0.33,WSDL version 423,2013-07-02 02:52:00,
2013-07-01 22:57:00,65.3,63.7,27.82,SSE,158,0.0,1.3,94,0.00,,,0.33,WSDL version 423,2013-07-02 02:57:00,
2013-07-01 23:02:00,65.3,63.6,27.82,SSE,158,0.0,0.0,94,0.00,,,0.33,WSDL version 423,2013-07-02 03:02:00,
2013-07-01 23:07:00,65.1,63.5,27.82,ENE,68,0.4,1.6,94,0.00,,,0.33,WSDL version 423,2013-07-02 03:07:00,
2013-07-01 23:12:00,65.0,63.4,27.82,ENE,68,0.0,1.6,94,0.00,,,0.33,WSDL version 423,2013-07-02 03:12:00,
2013-07-01 23:17:00,64.8,63.1,27.82,SSE,158,0.0,0.0,94,0.00,,,0.33,WSDL version 423,2013-07-02 03:17:00,
2013-07-01 23:22:00,64.8,63.1,27.82,SE,135,0.0,0.0,94,0.00,,,0.33,WSDL version 423,2013-07-02 03:22:00,
2013-07-01 23:27:00,64.8,63.2,27.82,SE,135,0.0,0.0,94,0.00,,,0.33,WSDL version 423,2013-07-02 03:27:00,
2013-07-01 23:32:00,64.8,63.1,27.82,ESE,113,0.0,0.0,94,0.00,,,0.33,WSDL version 423,2013-07-02 03:32:00,
2013-07-01 23:37:00,64.8,63.1,27.82,East,90,1.1,1.6,94,0.00,,,0.33,WSDL version 423,2013-07-02 03:37:00,
2013-07-01 23:42:00,64.8,63.1,27.82,NE,38,0.4,2.5,94,0.00,,,0.33,WSDL version 423,2013-07-02 03:42:00,
2013-07-01 23:47:00,64.8,63.1,27.82,ENE,68,1.2,2.5,94,0.00,,,0.33,WSDL version 423,2013-07-02 03:47:00,
2013-07-01 23:52:00,64.8,63.1,27.82,ENE,68,0.0,2.0,94,0.00,,,0.33,WSDL version 423,2013-07-02 03:52:00,
2013-07-01 23:57:00,64.7,63.0,27.82,NE,39,0.9,2.0,94,0.00,,,0.33,WSDL version 423,2013-07-02 03:57:00,